Tracking 35274 objects as of 11-Sep-2026
HD Live streaming from Space Station
objects crossing your sky now

THOR BURNER 2 R/B


10-day predictions


NORAD ID: 7817
Int'l Code: 1975-043B
Launch date: May 24, 1975
Source: United States (US)
Launch site: AIR FORCE WESTERN TEST RANGE (AFWTR)

Note: This is a ROCKET BODY
Your satellite tracking list
Your tracking list is empty




NASA's NSSDC Master Catalog

Two Line Element Set (TLE):
1  7817U 75043B   26254.84839042  .00000039  00000-0  38169-4 0  9992
2  7817  98.6678  98.6387 0052394 220.2984 139.4304 14.19846442375697
Source of the keplerian elements: AFSPC